MET'MAP v2.0
soon released !

Expected late october,
this new version will be
more efficient, smarter,
and hosted on a brand new
server x3 powerfull...
...and still free !


Not compatible ?
Try the mobile version !

LOG IN : | Subscribe | Disclaimer | Who is Orbifly ? |
ICAO code :

TAF - LFLD Bourges - 03 Aug 2020 19:23 UTC
Data Sources :     NOAA   


- Airport Elevation : 529 ft
- IATA code : BOU
- No reported NOTAMs.


LFLD - Bourges

Latest METAR recorded : 0000/00/00 U :03 TAF LFBU 031100Z 0312/0412 30008KT 9999 SCT040 TEMPO 0312/0316 30010G20KT SCT030TCU BKN040 BECMG 0316/0318 CAVOK BECMG 0400/0402 VRB03KT
NO TAF


MET'MAP, your aeronautical weather chart ! - Copyright ORBIFLY December 2007

Programming & Development : Alexandra Zaïnal
Co-Developer : Marc-Olivier Méhu
Technical & hardware support : Manuel Goepfert
Concept & Financing : Baudouin d'Aumeries